Sisseton, SD

12:49 PM CDT on May 23, 2018 (GMT -0500)
Sisseton

Weather History for K8D3 - September, 2012

Change the Weather History Date:

Thursday, September 6, 2012

  Actual Average Record
Temperature  
Mean Temperature 66 °F 64 °F  
Max Temperature 81 °F 76 °F 98 °F (1978)
Min Temperature 50 °F 51 °F 36 °F (1956)
Degree Days  
Heating Degree Days 0 4  
Month to date heating degree days 1 20  
Since 1 July heating degree days 37 63  
Cooling Degree Days 1 3  
Month to date cooling degree days 29 18  
Year to date cooling degree days 691 497  
Growing Degree Days 14 (Base 50)    
Moisture  
Dew Point 48 °F    
Average Humidity 56    
Maximum Humidity 86    
Minimum Humidity 25    
Precipitation  
Precipitation 0.00 in 0.07 in 1.70 in (1938)
Month to date precipitation 0.03 0.41  
Year to date precipitation 14.30 17.15  
Sea Level Pressure  
Sea Level Pressure 29.88 in    
Wind  
Wind Speed 7 mph (West)    
Max Wind Speed 17 mph    
Max Gust Speed 21 mph    
T = Trace of Precipitation, MM = Missing Value Source: NWS Daily Summary

Daily Weather History Graph

Daily Weather History Graph

Search for Another Location

Airport or City:

Astronomy

Sep. 06, 2012 Rise Set
Actual Time 6:55 AM CDT 7:55 PM CDT
Civil Twilight 6:25 AM CDT 8:25 PM CDT
Nautical Twilight 5:49 AM CDT 9:01 PM CDT
Astronomical Twilight 5:11 AM CDT 9:39 PM CDT
Moon 10:45 PM CDT (9/6) 1:17 PM CDT (9/6)
Length of Visible Light 14h 00m
Length of Day
12h 59m
Waning Gibbous, 67% of the Moon is Illuminated
Sep 6
Waning Gibbous
Sep 8
Last Quarter
Sep 15
New
Sep 22
First Quarter
Sep 29
Full

Hourly Weather History & Observations

Time (CDT) Temp. Dew Point Humidity Pressure Visibility Wind Dir Wind Speed Gust Speed Precip Events Conditions
12:56 AM 54.0 °F 46.9 °F 77% 29.90 in - WSW 4.6 mph - N/A   Unknown
1:56 AM 55.0 °F 46.9 °F 74% 29.89 in - Calm Calm - N/A   Unknown
2:56 AM 59.0 °F 50.0 °F 72% 29.89 in - WSW 8.1 mph - N/A   Unknown
3:56 AM 54.0 °F 48.0 °F 80% 29.89 in - WSW 4.6 mph - N/A   Unknown
4:56 AM 53.1 °F 48.0 °F 83% 29.88 in - SSW 5.8 mph - N/A   Unknown
5:56 AM 50.0 °F 45.0 °F 83% 29.88 in - South 3.5 mph - N/A   Unknown
6:56 AM 54.0 °F 46.0 °F 75% 29.88 in - SW 4.6 mph - N/A   Unknown
7:56 AM 62.1 °F 48.0 °F 60% 29.90 in - SW 8.1 mph - N/A   Unknown
8:56 AM 69.1 °F 46.9 °F 45% 29.89 in - SW 6.9 mph - N/A   Unknown
9:56 AM 73.9 °F 46.9 °F 38% 29.88 in - WSW 5.8 mph - N/A   Unknown
10:56 AM 77.0 °F 46.0 °F 33% 29.88 in - SSW 9.2 mph - N/A   Unknown
11:56 AM 79.0 °F 43.0 °F 28% 29.86 in - WSW 9.2 mph - N/A   Unknown
12:56 PM 75.9 °F 46.0 °F 35% 29.85 in - WSW 6.9 mph - N/A   Unknown
1:56 PM 77.0 °F 44.1 °F 31% 29.86 in - West 5.8 mph - N/A   Unknown
2:56 PM 78.1 °F 39.9 °F 25% 29.83 in - South 5.8 mph - N/A   Unknown
3:56 PM 77.0 °F 48.0 °F 36% 29.84 in - NE 8.1 mph - N/A   Unknown
4:56 PM 72.0 °F 46.9 °F 41% 29.87 in - NE 12.7 mph - N/A   Unknown
5:56 PM 70.0 °F 48.9 °F 47% 29.87 in - NE 3.5 mph - N/A   Unknown
6:56 PM 66.0 °F 53.1 °F 63% 29.88 in - North 8.1 mph - N/A   Unknown
7:56 PM 64.0 °F 54.0 °F 70% 29.86 in - Calm Calm - N/A   Unknown
8:56 PM 60.1 °F 53.1 °F 78% 29.90 in - North 8.1 mph - N/A   Unknown
9:56 PM 62.1 °F 51.1 °F 67% 29.91 in - NNE 11.5 mph - N/A   Unknown
10:56 PM 60.1 °F 51.1 °F 72% 29.93 in - North 9.2 mph - N/A   Unknown
11:56 PM 55.0 °F 51.1 °F 86% 29.95 in - NNW 5.8 mph - N/A   Unknown